STARLINK-4511 (53527 NORAD) Tracking and Keplerian Element Data

This shows tracking and keplerian element data for the satellite.

Feedback or suggestion? Click here.




ElementValue
Catalog53527
NameSTARLINK-4511
Epoch Orbit1423
Epoch Day324.60399851
Epoch Year2022
RAAN83.9526
Inclination53.2161
Eccentricity0.0001631
Argument of Perigee63.0956
Mean Anonmoly297.0202
Mean Motion15.08831783
Decay Rate-4.11E-06
L11 53527U 22101A 22324.60399851 -.00000411 00000+0 -77041-5 0 9993
L22 53527 53.2161 83.9526 0001631 63.0956 297.0202 15.08831783 14231



Live tracking and technical data element details for STARLINK-4511 (NORAD 53527). STARLINK-4511 can be tracked NOW for your location showing map with azimuth and elevation plus other details from your city location.







IsCatalogInMostPopularTable: catalog: 53527, numindb: 2
Update: records affected: 1



GetName: 53527 STARLINK-4511

Hit Count: updated at: Tue, 29 Nov 2022 00:41:44 GMT